Location: O'Brien
(30.0517°N, 82.9900°W)
Time: 15:59:45
(UTC-04:00)

ISS - Visible Passes

Search period start: 20 March 2019 00:00
Search period end: 30 March 2019 00:00
Orbit: 406 x 411 km, 51.6° (Epoch: 21 March)

Date Brightness Start Highest point End Pass type
(mag) Time Alt. Az. Time Alt. Az. Time Alt. Az.
20 Mar -3.6 20:49:46 10° SW 20:53:02 71° NW 20:55:12 19° NE visible
21 Mar -0.8 21:37:09 10° WNW 21:38:49 13° NW 21:40:04 11° N visible
22 Mar -1.5 20:44:55 10° W 20:47:37 23° NW 20:50:19 10° NNE visible
24 Mar -0.5 20:42:06 10° NW 20:42:20 10° NNW 20:42:35 10° NNW visible
